Regional Weather Roundup
Issued by NWS

Home | Current Version | Previous Version | Graphics & Text | Print | Product List | Glossary On
Versions: 1 2 3 4 5 6 7 8 9 10 11 12 13 14 15 16 17 18 19 20 21 22 23 24 25 26 27 28 29 30 31 32 33 34 35 36 37 38 39 40 41 42 43 44 45 46 47 48 49 50
000
ASUS43 KMKX 280611
RWRWI

WISCONSIN REGIONAL WEATHER ROUNDUP
NATIONAL WEATHER SERVICE MILWAUKEE/SULLIVAN WI
100 AM CDT FRI APR 28 2017

NOTE: "FAIR" INDICATES FEW OR NO CLOUDS BELOW 12,000 FEET WITH NO
SIGNIFICANT WEATHER AND/OR OBSTRUCTIONS TO VISIBILITY.

WIZ001-002-006>008-014>016-023>028-280700-
NORTHWEST WISCONSIN

CITY           SKY/WX    TMP DP  RH WIND       PRES   REMARKS
SUPERIOR ARPT  CLOUDY    31  25  81 W9        29.72R WCI  22
6HR MIN TEMP:  31; 6HR MAX TEMP:  32;

ASHLAND        CLOUDY    29  24  82 SW10      29.70R WCI  20
6HR MIN TEMP:  29; 6HR MAX TEMP:  30;

HAYWARD        CLOUDY    29  25  85 SW7       29.72R WCI  22
6HR MIN TEMP:  29; 6HR MAX TEMP:  30;

SIREN          CLOUDY    31  27  88 CALM      29.75R
6HR MIN TEMP:  30; 6HR MAX TEMP:  31;

CUMBERLAND     CLOUDY    30  23  74 W12       29.74S WCI  21
RICE LAKE      CLOUDY    32  26  77 W8        29.77R WCI  25
6HR MIN TEMP:  31; 6HR MAX TEMP:  32;

CHETEK         CLOUDY    31  25  76 W5        29.76R WCI  27
6HR MIN TEMP:  31; 6HR MAX TEMP:  32;

LADYSMITH      CLOUDY    31  27  84 SW9       29.75S WCI  23
6HR MIN TEMP:  30; 6HR MAX TEMP:  32;

EAU CLAIRE     CLOUDY    33  24  69 SW7       29.78R WCI  27
6HR MIN TEMP:  32; 6HR MAX TEMP:  34;

MENOMONIE      CLOUDY    33  26  75 SW6       29.79R WCI  28
6HR MIN TEMP:  33; 6HR MAX TEMP:  34;

NEW RICHMOND   CLOUDY    33  23  68 W9        29.78R WCI  25
6HR MIN TEMP:  31; 6HR MAX TEMP:  33;

OSCEOLA        CLOUDY    34  26  72 W9        29.81R WCI  26
6HR MIN TEMP:  32; 6HR MAX TEMP:  34;

$$

WIZ003>005-009-010-017-018-280700-
NORTH CENTRAL WISCONSIN

CITY           SKY/WX    TMP DP  RH WIND       PRES   REMARKS
MANITOWISH WTR CLOUDY    27  26  96 SW6       29.67R WCI  20
6HR MIN TEMP:  26; 6HR MAX TEMP:  27;

ARBOR VITAE    CLOUDY    29  26  86 W9G17     29.67R WCI  21
6HR MIN TEMP:  29; 6HR MAX TEMP:  32;

WOODRUFF       CLOUDY    29  26  86 W9G17     29.67R WCI  21
6HR MIN TEMP:  29; 6HR MAX TEMP:  32;

RHINELANDER    CLOUDY    29  25  85 W10G21    29.69R WCI  20
6HR MIN TEMP:  29; 6HR MAX TEMP:  30; 6HR PCP: TRACE;

EAGLE RIVER    CLOUDY    28  22  77 W15G21    29.67R WCI  16
6HR MIN TEMP:  28; 6HR MAX TEMP:  29;

LAND O LAKES   CLOUDY    28  24  84 W9        29.67R WCI  19
6HR MIN TEMP:  28; 6HR MAX TEMP:  29;

PHILLIPS       CLOUDY    27  26  95 SW8       29.70R WCI  19
6HR MIN TEMP:  27; 6HR MAX TEMP:  28;

TOMAHAWK       CLOUDY    28  23  80 W5        29.72R WCI  23
6HR MIN TEMP:  28; 6HR MAX TEMP:  30;

MEDFORD        CLOUDY    29  23  78 W8G17     29.74R WCI  21
6HR MIN TEMP:  29; 6HR MAX TEMP:  30;

MERRILL        CLOUDY    30  26  86 W8        29.74R WCI  22
6HR MIN TEMP:  30; 6HR MAX TEMP:  31;

$$

WIZ029-030-035-036-043>047-280700-
CENTRAL WISCONSIN

CITY           SKY/WX    TMP DP  RH WIND       PRES   REMARKS
WAUSAU         MIX PCPN  31  28  89 W17G24    29.74R WCI  19
6HR MIN TEMP:  31; 6HR MAX TEMP:  32; 6HR PCP: TRACE;

MOSINEE        CLOUDY    32  30  93 W14       29.76R WCI  22
MARSHFIELD     CLOUDY    31  27  85 W13G20    29.75R WCI  21
6HR MIN TEMP:  31; 6HR MAX TEMP:  33;

STEVENS POINT  CLOUDY    32  28  86 W9        29.76R WCI  24
6HR MIN TEMP:  32; 6HR MAX TEMP:  34;

WAUPACA        CLOUDY    37  32  81 W8        29.78R WCI  31
6HR MIN TEMP:  37; 6HR MAX TEMP:  40; 6HR PCP:  0.10;

WAUTOMA        CLOUDY    35  32  88 W9        29.79R WCI  28
6HR MIN TEMP:  35; 6HR MAX TEMP:  38;

WISC RAPIDS    CLOUDY    34  32  92 W6        29.79R WCI  29
6HR MIN TEMP:  34; 6HR MAX TEMP:  37; 6HR PCP:  0.01;

CAMP DOUGLAS   CLOUDY    35  29  77 W16       29.81R WCI  25
6HR MIN TEMP:  35; 6HR MAX TEMP:  38; 6HR PCP: TRACE;

$$

WIZ011>013-019>022-031-037>040-048>050-280700-
NORTHEAST WISCONSIN

CITY           SKY/WX    TMP DP  RH WIND       PRES   REMARKS
ANTIGO         CLOUDY    30  28  92 W15       29.72R WCI  19
6HR MIN TEMP:  29; 6HR MAX TEMP:  31;

SHAWANO        CLOUDY    37  32  83 W8        29.75R WCI  30
6HR MIN TEMP:  37; 6HR MAX TEMP:  39;

OCONTO         CLOUDY    36  31  83 W10       29.75R WCI  28
6HR MIN TEMP:  35; 6HR MAX TEMP:  39;

STURGEON BAY   CLOUDY    37  33  85 W9        29.75R WCI  30
6HR MIN TEMP:  37; 6HR MAX TEMP:  39; 6HR PCP: TRACE;

GREEN BAY      CLOUDY    39  34  82 W9        29.76R WCI  33
6HR MIN TEMP:  38; 6HR MAX TEMP:  42; 6HR PCP: TRACE;

MANITOWOC      CLOUDY    40  34  79 W8        29.78R WCI  34
6HR MIN TEMP:  40; 6HR MAX TEMP:  42; 6HR PCP:  0.02;

APPLETON       CLOUDY    36  32  87 W15G22    29.76R WCI  26
CLINTONVILLE   CLOUDY    36  32  87 W9        29.76R WCI  29
OSHKOSH        CLOUDY    37  32  82 W10G23    29.78R WCI  30
6HR MIN TEMP:  36; 6HR MAX TEMP:  41; 6HR PCP:  0.01;

$$

WIZ032>034-041-042-053>061-280700-
SOUTHWEST WISCONSIN

CITY           SKY/WX    TMP DP  RH WIND       PRES   REMARKS
LA CROSSE      CLOUDY    38  28  67 W12       29.83R WCI  30
6HR MIN TEMP:  38; 6HR MAX TEMP:  40;

SPARTA         CLOUDY    35  29  79 W10       29.82R WCI  27
6HR MIN TEMP:  35; 6HR MAX TEMP:  38;

VIROQUA        CLOUDY    34  29  82 W12G21    29.81S WCI  25
6HR MIN TEMP:  34; 6HR MAX TEMP:  37;

BOSCOBEL       CLOUDY    39  29  67 W13G20    29.85R WCI  31
6HR MIN TEMP:  39; 6HR MAX TEMP:  41;

PRAIRIE DU CHI CLOUDY    38  28  66 W14G20    29.86R WCI  30
6HR MIN TEMP:  38; 6HR MAX TEMP:  40;

PLATTEVILLE    CLEAR     33  32  96 SW6       29.85R WCI  27
6HR MIN TEMP:  33; 6HR MAX TEMP:  40;

$$

WIZ056-057-062-063-064-067-068-280700-
SOUTH CENTRAL WISCONSIN

CITY           SKY/WX    TMP DP  RH WIND       PRES   REMARKS
REEDSBURG      CLOUDY    36  29  76 SW14G21   29.81R WCI  27
6HR MIN TEMP:  36; 6HR MAX TEMP:  39;

BARABOO/DELLS  CLOUDY    37  29  75 W14       29.81R WCI  28
6HR MIN TEMP:  37; 6HR MAX TEMP:  40;

LONE ROCK      CLOUDY    39  29  67 W16       29.84R WCI  30
6HR MIN TEMP:  39; 6HR MAX TEMP:  41;

MINERAL POINT  CLEAR     37  32  81 W14       29.83R WCI  29
MADISON        CLOUDY    39  29  67 VRB5      29.81S
6HR MIN TEMP:  38; 6HR MAX TEMP:  41;

MIDDLETON      CLOUDY    39  31  72 W9G18     29.82S WCI  33
6HR MIN TEMP:  39; 6HR MAX TEMP:  41;

WATERTOWN      CLOUDY    38  32  78 SW8       29.82S WCI  32
6HR MIN TEMP:  38; 6HR MAX TEMP:  41;

MONROE         CLEAR     34  32  93 SW8       29.84R WCI  27
JANESVILLE     CLEAR     36  34  93 SW7       29.86R WCI  30
$$

WIZ051-052-058>065-066-070>072-280700-
SOUTHEAST WISCONSIN

CITY           SKY/WX    TMP DP  RH WIND       PRES   REMARKS
MILWAUKEE      CLOUDY    43  32  65 W16G25    29.83R
6HR MIN TEMP:  43; 6HR MAX TEMP:  45; 6HR PCP: TRACE;

WAUKESHA       MOCLDY    36  28  75 W15G22    29.84R WCI  26
MILWAUKEE/TIMM CLOUDY    39  30  70 W15G24    29.83R WCI  31
RACINE         CLOUDY    43  34  70 SW12      29.85R
6HR MIN TEMP:  43; 6HR MAX TEMP:  44;

KENOSHA        CLOUDY    43  35  73 W18       29.85R
6HR MIN TEMP:  43; 6HR MAX TEMP:  44;

FOND DU LAC    CLOUDY    39  30  70 SW14      29.79R WCI  31
6HR MIN TEMP:  39; 6HR MAX TEMP:  42; 6HR PCP: TRACE;

SHEBOYGAN      CLOUDY    40  35  83 W13       29.79R WCI  32
6HR MIN TEMP:  40; 6HR MAX TEMP:  42; 6HR PCP:  0.01;

WEST BEND      CLOUDY    37  32  81 SW12G17   29.81R WCI  30
JUNEAU         CLOUDY    37  31  78 SW12G18   29.82S WCI  30
6HR MIN TEMP:  37; 6HR MAX TEMP:  41;

$$

LSZ147-162-280700-
LAKE SUPERIOR

STATION/POSITION TIME  TEMP    WIND        PRES    WAVE
                       AIR SEA DIR/SP/G            HT/PER
                 (UTC) (F)     (DEG/KT/KT) (MB)    (FT/S)
DEVILS ISLAND    0600   32     260/ 19/ 23 1005.3R
PORT WING        0540   32     260/ 14/ 18 1005.8R
SAXON HARBOR     0530   30     210/  7/ 12 1005.4R
$$

LMZ867-665-643>646-280700-
LAKE MICHIGAN

STATION/POSITION TIME  TEMP    WIND        PRES    WAVE
                       AIR SEA DIR/SP/G            HT/PER
                 (UTC) (F)     (DEG/KT/KT) (MB)    (FT/S)
CHAMBERS ISLAND  0540   36     240/  7/ 14


USA.gov is the U.S. government's official web portal to all federal, state and local government web resources and services.